This is the latest recevied weather packets stored in our database for station/object DH2PG-6. If no packets are shown the sender has not sent any weather packets the latest 10 day(s).
| Time | Temp. | Humidity | Pressure | Rain* | Wind** | Luminosity | Snow |
|---|---|---|---|---|---|---|---|
| 1777807060 | 18.33° C | 55% | 1010.2 hPa | 0 mm | - | - | - |
| 1777806760 | 18.89° C | 54% | 1010.3 hPa | 0 mm | - | - | - |
| 1777806459 | 19.44° C | 53% | 1010.3 hPa | 0 mm | - | - | - |
| 1777806159 | 19.44° C | 52% | 1010.2 hPa | 0 mm | - | - | - |
| 1777805859 | 20° C | 51% | 1010.1 hPa | 0 mm | - | - | - |
| 1777805559 | 20° C | 51% | 1010.2 hPa | 0 mm | - | - | - |
| 1777804958 | 19.44° C | 51% | 1010.5 hPa | 0 mm | - | - | - |
| 1777804658 | 20° C | 51% | 1010.3 hPa | 0 mm | - | - | - |
| 1777804057 | 19.44° C | 50% | 1010.3 hPa | 0 mm | - | - | - |
| 1777803757 | 20° C | 51% | 1010.3 hPa | 0 mm | - | - | - |
| 1777803457 | 19.44° C | 51% | 1010.3 hPa | 0 mm | - | - | - |
| 1777803156 | 19.44° C | 51% | 1010.3 hPa | 0 mm | - | - | - |
| 1777802856 | 19.44° C | 51% | 1010.4 hPa | 0 mm | - | - | - |
| 1777802556 | 18.89° C | 52% | 1010.4 hPa | 0 mm | - | - | - |
| 1777802256 | 18.89° C | 52% | 1010.4 hPa | 0 mm | - | - | - |
| 1777801955 | 18.89° C | 51% | 1010.4 hPa | 0 mm | - | - | - |
| 1777801655 | 18.89° C | 52% | 1010.3 hPa | 0 mm | - | - | - |
| 1777801355 | 18.33° C | 52% | 1010.4 hPa | 0 mm | - | - | - |
| 1777801055 | 18.33° C | 51% | 1010.3 hPa | 0 mm | - | - | - |
| 1777800754 | 18.33° C | 51% | 1010.4 hPa | 0 mm | - | - | - |
| 1777800454 | 18.89° C | 52% | 1010.4 hPa | 0 mm | - | - | - |
| 1777800154 | 18.89° C | 51% | 1010.4 hPa | 0 mm | - | - | - |
| 1777799853 | 18.89° C | 51% | 1010.4 hPa | 0 mm | - | - | - |
| 1777799553 | 18.33° C | 52% | 1010.4 hPa | 0 mm | - | - | - |
| 1777799253 | 18.33° C | 52% | 1010.4 hPa | 0 mm | - | - | - |
* Rain latest hour (hover to see other rain measurements)
** Current wind speed in m/s (hover to see current wind gust speed)